This demonstration page uses our WeatherBlox Daily Observations layout. Learn more.

Left ArrowRight Arrow

41.55636, -103.73856

Hourly Observations for May 13, 2021

Temp ( °F °C ) Dew Point ( °F °C ) Humidity (%) Winds ( mph kmh ) Pressure ( in mb ) Visibility ( mi km ) Precip ( " mm )
12:58 am 00:58 Mostly Cloudy 45 7.4 41 5 85 85 S 13 20 30.22 1024 10 16.0934 N/A
1:58 am 01:58 Mostly Cloudy 44 6.7 40 4.7 87 87 SSW 13 20 30.23 1024 10 16.0934 N/A
2:58 am 02:58 Mostly Cloudy 44 6.9 40 4.7 86 86 N N/A 30.21 1023 10 16.0934 N/A
3:58 am 03:58 Mostly Cloudy 42 5.7 40 4.3 91 91 W 9 15 30.18 1022 10 16.0934 N/A
4:58 am 04:58 Mostly Clear 41 4.9 38 3.5 91 91 SSW 3 6 30.19 1022 10 16.0934 N/A
5:58 am 05:58 Mostly Cloudy 42 5.6 38 3.5 87 87 S 6 9 30.16 1021 10 16.0934 N/A
6:58 am 06:58 Sunny 43 6.3 40 4.3 87 87 SSW 9 15 30.15 1021 10 16.0934 N/A
7:58 am 07:58 Mostly Sunny 50 9.8 42 5.4 74 74 SSW 5 7 30.15 1021 10 16.0934 N/A
8:58 am 08:58 Partly Cloudy 54 12.1 45 7 71 71 E 5 7 30.13 1020 10 16.0934 N/A
9:56 am 09:56 Mostly Sunny 63 17.1 39 4.1 42 42 SW 12 19 30.1 1019 10 16.0934 N/A
10:56 am 10:56 Sunny 65 18.4 42 5.5 43 43 SSW 13 20 30.09 1019 10 16.0934 N/A
11:56 am 11:56 Sunny 67 19.7 35 1.9 31 31 W 15 24 30.06 1018 10 16.0934 N/A
12:56 pm 12:56 Mostly Sunny 69 20.4 36 2.2 30 30 WSW 5 7 30.03 1017 10 16.0934 N/A
1:56 pm 13:56 Mostly Sunny 71 21.7 30 -1.2 22 22 NNW 17 28 30.01 1016 10 16.0934 N/A
2:56 pm 14:56 Sunny 71 21.7 29 -1.6 21 21 NNW 10 17 29.99 1016 10 16.0934 N/A
3:56 pm 15:56 Sunny 72 22.2 29 -1.6 20 20 W 12 19 29.97 1015 10 16.0934 N/A
4:56 pm 16:56 Sunny 72 22.4 31 -0.6 22 22 NNW 7 11 29.96 1015 10 16.0934 N/A
5:56 pm 17:56 Sunny 72 22.3 30 -1.1 21 21 NW 12 19 29.95 1014 10 16.0934 N/A
6:58 pm 18:58 Sunny 69 20.5 35 1.8 29 29 NNW 7 11 29.96 1015 10 16.0934 N/A
7:58 pm 19:58 Hazy 59 14.8 41 5.2 53 53 E 15 24 30.02 1017 1 1.60934 N/A
8:58 pm 20:58 Mostly Cloudy with Haze 53 11.9 41 5.2 64 64 E 15 24 30.05 1018 0.75 1.207005 N/A
9:58 pm 21:58 Hazy 49 9.6 42 5.3 75 75 E 12 19 30.1 1019 7 11.26538 N/A
10:58 pm 22:58 Clear 46 7.9 41 4.9 82 82 E 10 17 30.15 1021 10 16.0934 N/A
11:58 pm 23:58 Mostly Cloudy 46 7.5 41 5.2 86 86 E 3 6 30.17 1022 10 16.0934 N/A

Powered by AerisWeather